Powrót do katalogu

STARLINK-36092

AktywnyŁącznośćVLEO
NORAD 66869·PAYLOAD·🇺🇸 United States

Wystrzelony Dec 2, 2025 z Cape Canaveral Space Force Station

Loading…

Następne Przeloty (najbliższe 24 godziny)

TLE

ŚwieżeSource: CelesTrak SupGP

Epoka: Sep 15, 2026, 03:26 UTC

1 66869C 25281X   26258.14354167  .00041027  00000+0  14855-2 0  2583
2 66869  43.0035 353.7555 0001654 265.4310 233.7800 15.27568381    12

Śledź STARLINK-36092 w czasie rzeczywistym z AllMySat

Download on the App Store